Weather History for Montreal Mirabel, QC

Change the Weather History Date:

Monday, September 16, 2013

  Actual Average Record
Temperature  
Mean Temperature 48 °F -  
Max Temperature 55 °F 67 °F 77 °F (2004)
Min Temperature 42 °F 48 °F 35 °F (2007)
Degree Days  
Heating Degree Days 16    
Moisture  
Dew Point 41 °F    
Average Humidity 76    
Maximum Humidity 100    
Minimum Humidity 47    
Precipitation  
Precipitation 0.00 in - - ()
Sea Level Pressure  
Sea Level Pressure 30.18 in    
Wind  
Wind Speed 7 mph ()    
Max Wind Speed 13 mph    
Max Gust Speed 21 mph    
Visibility 17.1 miles    
Events Rain    
Averages and records for this station are not official NWS values.
T = Trace of Precipitation, MM = Missing Value Source: Averaged Metar Reports

Daily Weather History Graph

Daily Weather History Graph

Search for Another Location

Airport:

Trip Planner

Search our weather history database for the weather conditions in past years. The results will help you decide how hot, cold, wet, or windy it might be!

Date:

Astronomy

Sep. 16, 2013 Rise Set
Actual Time 6:35 AM EDT 7:04 PM EDT
Civil Twilight 6:06 AM EDT 7:34 PM EDT
Nautical Twilight 5:30 AM EDT 8:09 PM EDT
Astronomical Twilight 4:54 AM EDT 8:46 PM EDT
Moon 5:18 PM EDT (9/16) 3:11 AM EDT (9/16)
Length of Visible Light 13h 28m
Length of Day
12h 28m
Waxing Gibbous, 90% of the Moon is Illuminated
Sep 16
Waxing Gibbous
Sep 19
Full
Sep 26
Last Quarter
Oct 4
New
Oct 11
First Quarter

Hourly Weather History & Observations

Time (EDT) Temp. Windchill Dew Point Humidity Pressure Visibility Wind Dir Wind Speed Gust Speed Precip Events Conditions
12:00 AM 55.4 °F - 55.4 °F 100% 29.99 in 20.0 mi WSW 5.8 mph - N/A Rain Light Rain
1:00 AM 55.4 °F - 55.4 °F 100% 29.99 in 20.0 mi SW 6.9 mph - N/A Rain Light Rain
1:33 AM 55.4 °F - 55.4 °F 100% 30.00 in 20.0 mi SW 5.8 mph - N/A Rain Light Rain
1:45 AM 55.4 °F - 55.4 °F 100% 30.00 in 15.0 mi SW 5.8 mph - N/A Rain Light Rain
2:00 AM 55.4 °F - 55.4 °F 100% 30.00 in 10.0 mi SW 8.1 mph - N/A Rain Light Rain
3:00 AM 50.0 °F - 48.2 °F 94% 30.02 in 15.0 mi North 11.5 mph 19.6 mph N/A Rain Light Rain
4:00 AM 48.2 °F - 46.4 °F 93% 30.05 in 20.0 mi North 11.5 mph - N/A Rain Light Rain
5:00 AM 46.4 °F 44.3 °F 44.6 °F 93% 30.07 in 25.0 mi North 4.6 mph - N/A Rain Light Rain
6:00 AM 46.4 °F 44.3 °F 42.8 °F 87% 30.11 in 25.0 mi North 4.6 mph - N/A Rain Light Rain
6:38 AM 44.6 °F 41.4 °F 42.8 °F 93% 30.13 in 25.0 mi North 5.8 mph - N/A   Mostly Cloudy
7:00 AM 44.6 °F 42.2 °F 42.8 °F 93% 30.14 in 25.0 mi NNE 4.6 mph - N/A   Mostly Cloudy
8:00 AM 44.6 °F 39.7 °F 39.2 °F 81% 30.18 in 45.0 mi North 9.2 mph - N/A   Mostly Cloudy
9:00 AM 44.6 °F 38.4 °F 33.8 °F 66% 30.21 in 45.0 mi North 12.7 mph 20.7 mph N/A   Partly Cloudy
10:00 AM 46.4 °F 42.9 °F 35.6 °F 66% 30.23 in 45.0 mi NNE 6.9 mph - N/A   Partly Cloudy
11:00 AM 48.2 °F - 35.6 °F 62% 30.24 in 45.0 mi North 9.2 mph - N/A   Scattered Clouds
12:00 PM 50.0 °F - 33.8 °F 54% 30.24 in 45.0 mi North 10.4 mph - N/A   Partly Cloudy
1:00 PM 51.8 °F - 33.8 °F 50% 30.25 in 45.0 mi North 6.9 mph - N/A   Mostly Cloudy
2:00 PM 53.6 °F - 33.8 °F 47% 30.25 in 45.0 mi North 8.1 mph - N/A   Scattered Clouds
3:00 PM 53.6 °F - 33.8 °F 47% 30.25 in 45.0 mi North 6.9 mph - N/A   Partly Cloudy
4:00 PM 55.4 °F - 35.6 °F 47% 30.25 in 45.0 mi NNW 11.5 mph - N/A   Partly Cloudy
5:00 PM 55.4 °F - 35.6 °F 47% 30.26 in 45.0 mi North 9.2 mph - N/A   Partly Cloudy
6:00 PM 53.6 °F - 35.6 °F 51% 30.28 in 45.0 mi NNW 10.4 mph - N/A   Partly Cloudy
7:00 PM 50.0 °F - 37.4 °F 62% 30.30 in 45.0 mi NNW 6.9 mph - N/A   Partly Cloudy
8:00 PM 46.4 °F 43.5 °F 37.4 °F 71% 30.32 in 25.0 mi NNW 5.8 mph - N/A   Clear
9:00 PM 44.6 °F 42.2 °F 37.4 °F 76% 30.34 in 25.0 mi WNW 4.6 mph - N/A   Clear
10:00 PM 42.8 °F 40.1 °F 37.4 °F 81% 30.36 in 25.0 mi West 4.6 mph - N/A   Clear
11:00 PM 42.8 °F 40.1 °F 37.4 °F 81% 30.38 in 25.0 mi WNW 4.6 mph - N/A   Clear